JCSAT-2B

Last updated on Sun Jun 21 2026 00:03:06 GMT+0000 (Coordinated Universal Time)

1 41471U 16028A 26171.35118538 -.00000170 00000+0 00000+0 0 9992 2 41471 0.0181 9.2880 0000866 81.4913 98.2080 1.00272039 37160
UTC large
Height (km)
Speed (km/s)
/
Latitude / Longitude
Inclination (degrees)
Orbital Period (minutes)
Azimuth
Elevation
Range (km)
Doppler Factor

Next 0 passes for location: London (51.5072 / 0.1276)

No passes found over London.
JCSAT-2B